Time,TemperatureF,DewpointF,PressureIn,WindDirection,WindDirectionDegrees,WindSpeedMPH,WindSpeedGustMPH,Humidity,HourlyPrecipIn,Conditions,Clouds,dailyrainin,SoftwareType,DateUTC
2013-09-23 00:01:00,52.9,49.1,30.02,NE,36,0.0,0.0,87,0.00,,,0.01,Wunderground v.1.15,2013-09-23 04:01:00,
2013-09-23 00:02:00,52.9,49.1,30.02,NE,36,0.0,0.0,87,0.00,,,0.01,Wunderground v.1.15,2013-09-23 04:02:00,
2013-09-23 00:03:00,52.9,49.1,30.02,NE,36,0.0,0.0,87,0.00,,,0.01,Wunderground v.1.15,2013-09-23 04:03:00,
2013-09-23 00:04:00,52.9,49.1,30.02,NE,36,0.0,0.0,87,0.00,,,0.01,Wunderground v.1.15,2013-09-23 04:04:00,
2013-09-23 00:07:00,52.9,49.1,30.02,NE,36,0.0,0.0,87,0.00,,,0.01,Wunderground v.1.15,2013-09-23 04:07:00,
2013-09-23 00:12:00,52.9,49.1,30.02,NE,36,0.0,0.0,87,0.00,,,0.00,Wunderground v.1.15,2013-09-23 04:12:00,
2013-09-23 00:17:00,52.8,49.0,30.02,NE,36,0.0,0.0,87,0.00,,,0.00,Wunderground v.1.15,2013-09-23 04:17:00,
2013-09-23 00:22:00,52.8,49.0,30.02,NE,36,0.0,0.0,87,0.00,,,0.00,Wunderground v.1.15,2013-09-23 04:22:00,
2013-09-23 00:28:00,52.8,49.0,30.02,NE,36,0.0,0.0,87,0.00,,,0.00,Wunderground v.1.15,2013-09-23 04:28:00,
2013-09-23 00:33:00,52.8,49.0,30.02,NE,36,0.0,0.0,87,0.00,,,0.00,Wunderground v.1.15,2013-09-23 04:33:00,
2013-09-23 00:39:00,52.7,48.9,30.02,North,355,0.0,0.0,87,0.00,,,0.00,Wunderground v.1.15,2013-09-23 04:39:00,
2013-09-23 00:44:00,52.7,48.9,30.02,West,276,0.0,0.0,87,0.00,,,0.00,Wunderground v.1.15,2013-09-23 04:44:00,
2013-09-23 00:49:00,52.7,48.9,30.02,SW,217,0.0,0.0,87,0.00,,,0.00,Wunderground v.1.15,2013-09-23 04:49:00,
2013-09-23 00:54:00,52.7,49.2,30.02,SW,216,0.0,0.0,88,0.00,,,0.00,Wunderground v.1.15,2013-09-23 04:54:00,
2013-09-23 01:00:00,52.6,49.1,30.02,SW,217,0.0,0.0,88,0.00,,,0.00,Wunderground v.1.15,2013-09-23 05:00:00,
2013-09-23 01:06:00,52.6,48.8,30.02,SW,216,0.0,0.0,87,0.00,,,0.00,Wunderground v.1.15,2013-09-23 05:06:00,
2013-09-23 01:12:00,52.5,49.0,30.03,SSW,200,0.0,0.0,88,0.00,,,0.00,Wunderground v.1.15,2013-09-23 05:12:00,
2013-09-23 01:17:00,52.6,49.1,30.03,SSW,200,0.0,0.0,88,0.00,,,0.00,Wunderground v.1.15,2013-09-23 05:17:00,
2013-09-23 01:22:00,52.5,49.0,30.03,SSW,198,0.0,0.0,88,0.00,,,0.00,Wunderground v.1.15,2013-09-23 05:22:00,
2013-09-23 01:28:00,52.5,49.0,30.03,SSW,198,0.0,0.0,88,0.00,,,0.00,Wunderground v.1.15,2013-09-23 05:28:00,
2013-09-23 01:33:00,52.5,49.4,30.03,SSW,198,0.0,0.0,89,0.00,,,0.00,Wunderground v.1.15,2013-09-23 05:33:00,
2013-09-23 01:38:00,52.4,49.3,30.03,SSW,198,0.0,0.0,89,0.00,,,0.00,Wunderground v.1.15,2013-09-23 05:38:00,
2013-09-23 01:43:00,52.4,49.3,30.03,SSW,198,0.0,0.0,89,0.00,,,0.00,Wunderground v.1.15,2013-09-23 05:43:00,
2013-09-23 01:49:00,52.4,49.3,30.04,SSW,198,0.0,0.0,89,0.00,,,0.00,Wunderground v.1.15,2013-09-23 05:49:00,
2013-09-23 01:54:00,52.4,49.3,30.04,SSW,198,0.0,0.0,89,0.00,,,0.00,Wunderground v.1.15,2013-09-23 05:54:00,
2013-09-23 01:59:00,52.4,49.3,30.04,SSW,198,0.0,0.0,89,0.00,,,0.00,Wunderground v.1.15,2013-09-23 05:59:00,
2013-09-23 02:04:00,52.3,49.5,30.04,SSW,198,0.0,0.0,90,0.00,,,0.00,Wunderground v.1.15,2013-09-23 06:04:00,
2013-09-23 02:09:00,52.3,49.2,30.04,South,175,0.0,1.0,89,0.00,,,0.00,Wunderground v.1.15,2013-09-23 06:09:00,
2013-09-23 02:15:00,52.3,49.2,30.04,South,175,0.0,0.0,89,0.00,,,0.00,Wunderground v.1.15,2013-09-23 06:15:00,
2013-09-23 02:20:00,52.2,49.1,30.04,South,175,0.0,0.0,89,0.00,,,0.00,Wunderground v.1.15,2013-09-23 06:20:00,
2013-09-23 02:25:00,52.2,49.1,30.04,South,175,0.0,0.0,89,0.00,,,0.00,Wunderground v.1.15,2013-09-23 06:25:00,
2013-09-23 02:30:00,52.2,49.4,30.04,South,175,0.0,0.0,90,0.00,,,0.00,Wunderground v.1.15,2013-09-23 06:30:00,
2013-09-23 02:35:00,52.2,49.4,30.04,South,175,0.0,0.0,90,0.00,,,0.00,Wunderground v.1.15,2013-09-23 06:35:00,
2013-09-23 02:40:00,52.1,49.3,30.04,South,175,0.0,0.0,90,0.00,,,0.00,Wunderground v.1.15,2013-09-23 06:40:00,
2013-09-23 02:46:00,52.1,49.3,30.04,South,175,0.0,0.0,90,0.00,,,0.00,Wunderground v.1.15,2013-09-23 06:46:00,
2013-09-23 02:52:00,52.0,49.2,30.04,South,175,0.0,0.0,90,0.00,,,0.00,Wunderground v.1.15,2013-09-23 06:52:00,
2013-09-23 02:57:00,52.0,49.2,30.04,South,175,0.0,0.0,90,0.00,,,0.00,Wunderground v.1.15,2013-09-23 06:57:00,
2013-09-23 03:02:00,51.9,48.8,30.04,South,175,0.0,0.0,89,0.00,,,0.00,Wunderground v.1.15,2013-09-23 07:02:00,
2013-09-23 03:08:00,51.9,48.8,30.04,South,175,0.0,0.0,89,0.00,,,0.00,Wunderground v.1.15,2013-09-23 07:08:00,
2013-09-23 03:13:00,51.9,49.1,30.04,South,175,0.0,0.0,90,0.00,,,0.00,Wunderground v.1.15,2013-09-23 07:13:00,
2013-09-23 03:18:00,51.8,49.0,30.04,South,175,0.0,0.0,90,0.00,,,0.00,Wunderground v.1.15,2013-09-23 07:18:00,
2013-09-23 03:23:00,51.8,49.0,30.04,South,175,0.0,0.0,90,0.00,,,0.00,Wunderground v.1.15,2013-09-23 07:23:00,
2013-09-23 03:29:00,51.8,49.0,30.05,South,175,0.0,0.0,90,0.00,,,0.00,Wunderground v.1.15,2013-09-23 07:29:00,
2013-09-23 03:34:00,51.8,49.0,30.04,South,175,0.0,0.0,90,0.00,,,0.00,Wunderground v.1.15,2013-09-23 07:34:00,
2013-09-23 03:39:00,51.8,49.0,30.05,South,175,0.0,0.0,90,0.00,,,0.00,Wunderground v.1.15,2013-09-23 07:39:00,
2013-09-23 03:45:00,51.7,48.9,30.04,South,175,0.0,0.0,90,0.00,,,0.00,Wunderground v.1.15,2013-09-23 07:45:00,
2013-09-23 03:51:00,51.7,48.6,30.04,South,175,0.0,0.0,89,0.00,,,0.00,Wunderground v.1.15,2013-09-23 07:51:00,
2013-09-23 03:56:00,51.7,48.9,30.04,South,175,0.0,0.0,90,0.00,,,0.00,Wunderground v.1.15,2013-09-23 07:56:00,
2013-09-23 04:02:00,51.7,48.9,30.05,South,175,0.0,0.0,90,0.00,,,0.00,Wunderground v.1.15,2013-09-23 08:02:00,
2013-09-23 04:07:00,51.6,48.8,30.05,South,175,0.0,0.0,90,0.00,,,0.00,Wunderground v.1.15,2013-09-23 08:07:00,
2013-09-23 04:12:00,51.6,48.8,30.05,South,175,0.0,0.0,90,0.00,,,0.00,Wunderground v.1.15,2013-09-23 08:12:00,
2013-09-23 04:18:00,51.6,48.8,30.05,South,175,0.0,0.0,90,0.00,,,0.00,Wunderground v.1.15,2013-09-23 08:18:00,
2013-09-23 04:23:00,51.5,48.7,30.05,South,175,0.0,0.0,90,0.00,,,0.00,Wunderground v.1.15,2013-09-23 08:23:00,
2013-09-23 04:28:00,51.5,48.7,30.05,South,175,0.0,0.0,90,0.00,,,0.00,Wunderground v.1.15,2013-09-23 08:28:00,
2013-09-23 04:33:00,51.5,48.4,30.05,South,175,0.0,0.0,89,0.00,,,0.00,Wunderground v.1.15,2013-09-23 08:33:00,
2013-09-23 04:39:00,51.5,48.7,30.06,South,175,0.0,0.0,90,0.00,,,0.00,Wunderground v.1.15,2013-09-23 08:39:00,
2013-09-23 04:44:00,51.5,48.4,30.06,South,175,0.0,0.0,89,0.00,,,0.00,Wunderground v.1.15,2013-09-23 08:44:00,
2013-09-23 04:49:00,51.5,48.7,30.06,South,175,0.0,0.0,90,0.00,,,0.00,Wunderground v.1.15,2013-09-23 08:49:00,
2013-09-23 04:55:00,51.4,48.6,30.06,South,175,0.0,0.0,90,0.00,,,0.00,Wunderground v.1.15,2013-09-23 08:55:00,
2013-09-23 05:00:00,51.4,48.6,30.06,South,175,0.0,0.0,90,0.00,,,0.00,Wunderground v.1.15,2013-09-23 09:00:00,
2013-09-23 05:06:00,51.4,48.6,30.06,South,175,0.0,0.0,90,0.00,,,0.00,Wunderground v.1.15,2013-09-23 09:06:00,
2013-09-23 05:11:00,51.4,48.6,30.06,South,175,0.0,0.0,90,0.00,,,0.00,Wunderground v.1.15,2013-09-23 09:11:00,
2013-09-23 05:16:00,51.3,48.2,30.07,South,175,0.0,0.0,89,0.00,,,0.00,Wunderground v.1.15,2013-09-23 09:16:00,
2013-09-23 05:21:00,51.3,48.2,30.06,South,175,0.0,0.0,89,0.00,,,0.00,Wunderground v.1.15,2013-09-23 09:21:00,
2013-09-23 05:27:00,51.2,47.2,30.06,South,175,0.0,1.0,86,0.00,,,0.00,Wunderground v.1.15,2013-09-23 09:27:00,
2013-09-23 05:32:00,51.2,46.8,30.06,South,175,0.0,0.0,85,0.00,,,0.00,Wunderground v.1.15,2013-09-23 09:32:00,
2013-09-23 05:37:00,51.1,47.4,30.06,South,175,0.0,0.0,87,0.00,,,0.00,Wunderground v.1.15,2013-09-23 09:37:00,
2013-09-23 05:42:00,51.1,47.7,30.06,South,175,0.0,0.0,88,0.00,,,0.00,Wunderground v.1.15,2013-09-23 09:42:00,
2013-09-23 05:48:00,51.0,47.6,30.07,South,175,0.0,0.0,88,0.00,,,0.00,Wunderground v.1.15,2013-09-23 09:48:00,
2013-09-23 05:53:00,50.9,47.5,30.07,South,175,0.0,0.0,88,0.00,,,0.00,Wunderground v.1.15,2013-09-23 09:53:00,
2013-09-23 05:58:00,50.9,47.5,30.07,South,175,0.0,0.0,88,0.00,,,0.00,Wunderground v.1.15,2013-09-23 09:58:00,
2013-09-23 06:04:00,50.8,47.7,30.07,South,175,0.0,0.0,89,0.00,,,0.00,Wunderground v.1.15,2013-09-23 10:04:00,
2013-09-23 06:09:00,50.7,47.3,30.07,South,175,0.0,0.0,88,0.00,,,0.00,Wunderground v.1.15,2013-09-23 10:09:00,
2013-09-23 06:14:00,50.6,47.2,30.07,South,175,0.0,0.0,88,0.00,,,0.00,Wunderground v.1.15,2013-09-23 10:14:00,
2013-09-23 06:20:00,50.5,47.1,30.07,South,175,0.0,0.0,88,0.00,,,0.00,Wunderground v.1.15,2013-09-23 10:20:00,
2013-09-23 06:25:00,50.4,47.0,30.07,South,175,0.0,0.0,88,0.00,,,0.00,Wunderground v.1.15,2013-09-23 10:25:00,
2013-09-23 06:30:00,50.4,47.0,30.07,South,175,0.0,0.0,88,0.00,,,0.00,Wunderground v.1.15,2013-09-23 10:30:00,
2013-09-23 06:35:00,50.3,46.9,30.08,South,175,0.0,0.0,88,0.00,,,0.00,Wunderground v.1.15,2013-09-23 10:35:00,
2013-09-23 06:41:00,50.3,46.9,30.08,South,175,0.0,0.0,88,0.00,,,0.00,Wunderground v.1.15,2013-09-23 10:41:00,
2013-09-23 06:47:00,50.2,46.8,30.08,South,175,0.0,0.0,88,0.00,,,0.00,Wunderground v.1.15,2013-09-23 10:47:00,
2013-09-23 06:52:00,50.2,46.8,30.08,South,175,0.0,0.0,88,0.00,,,0.00,Wunderground v.1.15,2013-09-23 10:52:00,
2013-09-23 06:57:00,50.1,46.7,30.09,South,175,0.0,0.0,88,0.00,,,0.00,Wunderground v.1.15,2013-09-23 10:57:00,
2013-09-23 07:03:00,50.1,47.0,30.09,South,175,0.0,0.0,89,0.00,,,0.00,Wunderground v.1.15,2013-09-23 11:03:00,
2013-09-23 07:08:00,50.0,46.9,30.09,South,175,0.0,0.0,89,0.00,,,0.00,Wunderground v.1.15,2013-09-23 11:08:00,
2013-09-23 07:13:00,50.1,47.3,30.09,South,175,0.0,0.0,90,0.00,,,0.00,Wunderground v.1.15,2013-09-23 11:13:00,
2013-09-23 07:18:00,50.0,46.9,30.09,South,175,0.0,0.0,89,0.00,,,0.00,Wunderground v.1.15,2013-09-23 11:18:00,
2013-09-23 07:23:00,50.1,47.3,30.09,South,175,0.0,0.0,90,0.00,,,0.00,Wunderground v.1.15,2013-09-23 11:23:00,
2013-09-23 07:29:00,50.1,47.0,30.10,South,175,0.0,0.0,89,0.00,,,0.00,Wunderground v.1.15,2013-09-23 11:29:00,
2013-09-23 07:34:00,50.2,47.4,30.10,South,175,0.0,0.0,90,0.00,,,0.00,Wunderground v.1.15,2013-09-23 11:34:00,
2013-09-23 07:39:00,50.3,47.5,30.10,South,175,0.0,0.0,90,0.00,,,0.00,Wunderground v.1.15,2013-09-23 11:39:00,
2013-09-23 07:45:00,50.4,47.3,30.11,South,175,0.0,0.0,89,0.00,,,0.00,Wunderground v.1.15,2013-09-23 11:45:00,
2013-09-23 07:50:00,50.4,47.6,30.11,South,175,0.0,0.0,90,0.00,,,0.00,Wunderground v.1.15,2013-09-23 11:50:00,
2013-09-23 07:55:00,50.5,47.4,30.11,South,175,0.0,0.0,89,0.00,,,0.00,Wunderground v.1.15,2013-09-23 11:55:00,
2013-09-23 08:00:00,50.7,47.9,30.11,South,175,0.0,0.0,90,0.00,,,0.00,Wunderground v.1.15,2013-09-23 12:00:00,
2013-09-23 08:06:00,50.8,47.4,30.11,SE,128,0.0,3.0,88,0.00,,,0.00,Wunderground v.1.15,2013-09-23 12:06:00,
2013-09-23 08:11:00,51.0,47.6,30.11,SE,128,0.0,0.0,88,0.00,,,0.00,Wunderground v.1.15,2013-09-23 12:11:00,
2013-09-23 08:17:00,51.3,47.6,30.12,SE,128,0.0,0.0,87,0.00,,,0.00,Wunderground v.1.15,2013-09-23 12:17:00,
2013-09-23 08:22:00,51.4,47.4,30.12,SE,128,0.0,0.0,86,0.00,,,0.00,Wunderground v.1.15,2013-09-23 12:22:00,
2013-09-23 08:27:00,51.7,47.6,30.12,NNW,331,0.0,0.0,86,0.00,,,0.00,Wunderground v.1.15,2013-09-23 12:27:00,
2013-09-23 08:32:00,51.8,46.8,30.12,SE,142,1.0,2.0,83,0.00,,,0.00,Wunderground v.1.15,2013-09-23 12:32:00,
2013-09-23 08:38:00,52.0,47.0,30.12,SE,132,1.0,2.0,83,0.00,,,0.00,Wunderground v.1.15,2013-09-23 12:38:00,
2013-09-23 08:43:00,52.1,46.1,30.12,SE,130,0.0,1.0,80,0.00,,,0.00,Wunderground v.1.15,2013-09-23 12:43:00,
2013-09-23 08:48:00,52.2,45.9,30.12,SE,130,0.0,1.0,79,0.00,,,0.00,Wunderground v.1.15,2013-09-23 12:48:00,
2013-09-23 08:53:00,52.3,45.6,30.12,SE,144,0.0,0.0,78,0.00,,,0.00,Wunderground v.1.15,2013-09-23 12:53:00,
2013-09-23 08:58:00,52.4,45.4,30.12,SW,223,0.0,1.0,77,0.00,,,0.00,Wunderground v.1.15,2013-09-23 12:58:00,
2013-09-23 09:04:00,52.6,45.2,30.12,NE,40,0.0,0.0,76,0.00,,,0.00,Wunderground v.1.15,2013-09-23 13:04:00,
2013-09-23 09:09:00,52.7,45.3,30.12,SE,136,1.0,1.0,76,0.00,,,0.00,Wunderground v.1.15,2013-09-23 13:09:00,
2013-09-23 09:14:00,52.8,45.1,30.12,East,81,0.0,1.0,75,0.00,,,0.00,Wunderground v.1.15,2013-09-23 13:14:00,
2013-09-23 09:19:00,52.9,44.8,30.13,ESE,107,0.0,1.0,74,0.00,,,0.00,Wunderground v.1.15,2013-09-23 13:19:00,
2013-09-23 09:24:00,53.1,45.4,30.13,North,360,0.0,1.0,75,0.00,,,0.00,Wunderground v.1.15,2013-09-23 13:24:00,
2013-09-23 09:30:00,53.2,44.8,30.13,North,5,0.0,0.0,73,0.00,,,0.00,Wunderground v.1.15,2013-09-23 13:30:00,
2013-09-23 09:35:00,53.2,42.9,30.13,SE,146,1.0,2.0,68,0.00,,,0.00,Wunderground v.1.15,2013-09-23 13:35:00,
2013-09-23 09:40:00,53.1,43.6,30.13,NW,304,1.0,1.0,70,0.00,,,0.00,Wunderground v.1.15,2013-09-23 13:40:00,
2013-09-23 09:46:00,53.0,42.7,30.13,NE,56,1.0,1.0,68,0.00,,,0.00,Wunderground v.1.15,2013-09-23 13:46:00,
2013-09-23 09:52:00,52.9,43.0,30.13,NNW,348,1.0,1.0,69,0.00,,,0.00,Wunderground v.1.15,2013-09-23 13:52:00,
2013-09-23 09:57:00,52.9,42.6,30.13,SE,136,1.0,3.0,68,0.00,,,0.00,Wunderground v.1.15,2013-09-23 13:57:00,
2013-09-23 10:02:00,53.0,43.8,30.13,SE,134,1.0,1.0,71,0.00,,,0.00,Wunderground v.1.15,2013-09-23 14:02:00,
2013-09-23 10:07:00,53.0,42.3,30.13,NE,35,0.0,2.0,67,0.00,,,0.00,Wunderground v.1.15,2013-09-23 14:07:00,
2013-09-23 10:13:00,53.0,43.1,30.14,SE,126,1.0,1.0,69,0.00,,,0.00,Wunderground v.1.15,2013-09-23 14:13:00,
2013-09-23 10:18:00,53.0,42.7,30.14,NNE,26,1.0,1.0,68,0.00,,,0.00,Wunderground v.1.15,2013-09-23 14:18:00,
2013-09-23 10:23:00,53.1,42.8,30.14,NNE,17,1.0,1.0,68,0.00,,,0.00,Wunderground v.1.15,2013-09-23 14:23:00,
2013-09-23 10:28:00,53.2,43.7,30.14,SE,136,0.0,1.0,70,0.00,,,0.00,Wunderground v.1.15,2013-09-23 14:28:00,
2013-09-23 10:34:00,53.4,43.9,30.14,NE,44,0.0,1.0,70,0.00,,,0.00,Wunderground v.1.15,2013-09-23 14:34:00,
2013-09-23 10:39:00,53.3,43.0,30.14,North,360,1.0,2.0,68,0.00,,,0.00,Wunderground v.1.15,2013-09-23 14:39:00,
2013-09-23 10:44:00,53.2,42.9,30.14,South,178,1.0,1.0,68,0.00,,,0.00,Wunderground v.1.15,2013-09-23 14:44:00,
2013-09-23 10:49:00,53.4,44.2,30.14,SSE,161,1.0,3.0,71,0.00,,,0.00,Wunderground v.1.15,2013-09-23 14:49:00,
2013-09-23 10:55:00,53.5,43.6,30.15,SE,139,1.0,2.0,69,0.00,,,0.00,Wunderground v.1.15,2013-09-23 14:55:00,
2013-09-23 11:00:00,53.5,43.2,30.15,NW,306,1.0,2.0,68,0.00,,,0.00,Wunderground v.1.15,2013-09-23 15:00:00,
2013-09-23 11:06:00,53.3,43.0,30.15,North,355,1.0,2.0,68,0.00,,,0.00,Wunderground v.1.15,2013-09-23 15:06:00,
2013-09-23 11:11:00,53.2,42.9,30.15,NE,38,1.0,1.0,68,0.00,,,0.00,Wunderground v.1.15,2013-09-23 15:11:00,
2013-09-23 11:16:00,53.3,44.1,30.16,ESE,111,0.0,1.0,71,0.00,,,0.00,Wunderground v.1.15,2013-09-23 15:16:00,
2013-09-23 11:21:00,53.5,44.3,30.16,SE,128,0.0,1.0,71,0.00,,,0.00,Wunderground v.1.15,2013-09-23 15:21:00,
2013-09-23 11:26:00,53.4,43.1,30.16,North,10,1.0,1.0,68,0.00,,,0.00,Wunderground v.1.15,2013-09-23 15:26:00,
2013-09-23 11:31:00,53.4,43.1,30.16,ESE,107,1.0,1.0,68,0.00,,,0.00,Wunderground v.1.15,2013-09-23 15:31:00,
2013-09-23 11:37:00,53.6,43.3,30.16,SE,124,0.0,1.0,68,0.00,,,0.00,Wunderground v.1.15,2013-09-23 15:37:00,
2013-09-23 11:42:00,53.6,43.7,30.16,ENE,71,1.0,1.0,69,0.00,,,0.00,Wunderground v.1.15,2013-09-23 15:42:00,
2013-09-23 11:47:00,53.8,45.0,30.16,East,80,0.0,1.0,72,0.00,,,0.00,Wunderground v.1.15,2013-09-23 15:47:00,
2013-09-23 11:52:00,53.8,43.1,30.16,East,98,0.0,1.0,67,0.00,,,0.00,Wunderground v.1.15,2013-09-23 15:52:00,
2013-09-23 11:58:00,53.9,43.6,30.16,NE,38,1.0,4.0,68,0.00,,,0.00,Wunderground v.1.15,2013-09-23 15:58:00,
2013-09-23 12:03:00,53.7,44.1,30.17,SE,143,1.0,2.0,70,0.00,,,0.00,Wunderground v.1.15,2013-09-23 16:03:00,
2013-09-23 12:08:00,53.8,44.6,30.17,SE,143,0.0,2.0,71,0.00,,,0.00,Wunderground v.1.15,2013-09-23 16:08:00,
2013-09-23 12:13:00,53.8,43.5,30.17,East,81,0.0,0.0,68,0.00,,,0.00,Wunderground v.1.15,2013-09-23 16:13:00,
2013-09-23 12:18:00,53.8,43.5,30.17,NNW,346,0.0,1.0,68,0.00,,,0.00,Wunderground v.1.15,2013-09-23 16:18:00,
2013-09-23 12:23:00,53.8,45.0,30.17,ESE,109,1.0,2.0,72,0.00,,,0.00,Wunderground v.1.15,2013-09-23 16:23:00,
2013-09-23 12:29:00,53.8,43.9,30.16,SE,140,1.0,2.0,69,0.00,,,0.00,Wunderground v.1.15,2013-09-23 16:29:00,
2013-09-23 12:34:00,53.9,44.7,30.17,SW,225,1.0,1.0,71,0.00,,,0.00,Wunderground v.1.15,2013-09-23 16:34:00,
2013-09-23 12:39:00,53.9,44.0,30.16,East,86,1.0,1.0,69,0.00,,,0.00,Wunderground v.1.15,2013-09-23 16:39:00,
2013-09-23 12:44:00,54.0,44.8,30.16,East,92,1.0,1.0,71,0.00,,,0.00,Wunderground v.1.15,2013-09-23 16:44:00,
2013-09-23 12:50:00,54.1,44.5,30.16,SSW,211,0.0,0.0,70,0.00,,,0.00,Wunderground v.1.15,2013-09-23 16:50:00,
2013-09-23 12:56:00,54.2,44.6,30.16,SSE,157,0.0,1.0,70,0.00,,,0.00,Wunderground v.1.15,2013-09-23 16:56:00,
2013-09-23 13:01:00,54.2,44.2,30.16,SE,136,0.0,1.0,69,0.00,,,0.00,Wunderground v.1.15,2013-09-23 17:01:00,
2013-09-23 13:07:00,54.0,44.8,30.16,NE,38,1.0,2.0,71,0.00,,,0.00,Wunderground v.1.15,2013-09-23 17:07:00,
2013-09-23 13:12:00,54.0,44.8,30.16,ESE,111,1.0,1.0,71,0.00,,,0.00,Wunderground v.1.15,2013-09-23 17:12:00,
2013-09-23 13:17:00,54.1,45.6,30.16,ESE,111,0.0,1.0,73,0.00,,,0.00,Wunderground v.1.15,2013-09-23 17:17:00,
2013-09-23 13:23:00,54.3,45.1,30.16,ESE,111,0.0,0.0,71,0.00,,,0.00,Wunderground v.1.15,2013-09-23 17:23:00,
2013-09-23 13:28:00,54.4,44.1,30.16,East,99,0.0,0.0,68,0.00,,,0.00,Wunderground v.1.15,2013-09-23 17:28:00,
2013-09-23 13:33:00,54.6,45.8,30.16,East,90,0.0,0.0,72,0.00,,,0.00,Wunderground v.1.15,2013-09-23 17:33:00,
2013-09-23 13:38:00,54.8,44.8,30.16,East,90,0.0,0.0,69,0.00,,,0.00,Wunderground v.1.15,2013-09-23 17:38:00,
2013-09-23 13:43:00,54.8,44.0,30.16,East,90,0.0,0.0,67,0.00,,,0.00,Wunderground v.1.15,2013-09-23 17:43:00,
2013-09-23 13:48:00,54.8,44.8,30.15,East,92,0.0,0.0,69,0.00,,,0.00,Wunderground v.1.15,2013-09-23 17:48:00,
2013-09-23 13:54:00,54.8,44.0,30.15,ESE,113,0.0,1.0,67,0.00,,,0.00,Wunderground v.1.15,2013-09-23 17:54:00,
2013-09-23 13:59:00,54.8,44.0,30.15,SE,131,0.0,1.0,67,0.00,,,0.00,Wunderground v.1.15,2013-09-23 17:59:00,
2013-09-23 14:04:00,55.1,45.1,30.15,WSW,247,0.0,2.0,69,0.00,,,0.00,Wunderground v.1.15,2013-09-23 18:04:00,
2013-09-23 14:09:00,55.3,44.1,30.15,ESE,107,1.0,2.0,66,0.00,,,0.00,Wunderground v.1.15,2013-09-23 18:09:00,
2013-09-23 14:15:00,55.4,43.8,30.15,East,92,1.0,1.0,65,0.00,,,0.00,Wunderground v.1.15,2013-09-23 18:15:00,
2013-09-23 14:20:00,55.5,45.5,30.15,East,92,0.0,0.0,69,0.00,,,0.00,Wunderground v.1.15,2013-09-23 18:20:00,
2013-09-23 14:26:00,55.6,44.4,30.15,ENE,68,0.0,2.0,66,0.00,,,0.00,Wunderground v.1.15,2013-09-23 18:26:00,
2013-09-23 14:31:00,55.7,44.5,30.15,NE,49,0.0,0.0,66,0.00,,,0.00,Wunderground v.1.15,2013-09-23 18:31:00,
2013-09-23 14:36:00,55.9,45.1,30.14,SE,142,0.0,5.0,67,0.00,,,0.00,Wunderground v.1.15,2013-09-23 18:36:00,
2013-09-23 14:41:00,55.9,44.3,30.14,SE,140,1.0,1.0,65,0.00,,,0.00,Wunderground v.1.15,2013-09-23 18:41:00,
2013-09-23 14:46:00,56.1,44.5,30.14,South,173,1.0,1.0,65,0.00,,,0.00,Wunderground v.1.15,2013-09-23 18:46:00,
2013-09-23 14:52:00,56.2,44.2,30.14,SE,124,1.0,1.0,64,0.00,,,0.00,Wunderground v.1.15,2013-09-23 18:52:00,
2013-09-23 14:57:00,56.2,44.2,30.14,SE,136,1.0,3.0,64,0.00,,,0.00,Wunderground v.1.15,2013-09-23 18:57:00,
2013-09-23 15:03:00,56.3,45.1,30.14,SE,136,0.0,1.0,66,0.00,,,0.00,Wunderground v.1.15,2013-09-23 19:03:00,
2013-09-23 15:08:00,56.4,44.8,30.14,SE,140,0.0,5.0,65,0.00,,,0.00,Wunderground v.1.15,2013-09-23 19:08:00,
2013-09-23 15:13:00,56.3,44.3,30.14,East,101,0.0,1.0,64,0.00,,,0.00,Wunderground v.1.15,2013-09-23 19:13:00,
2013-09-23 15:18:00,56.4,45.2,30.13,East,101,0.0,1.0,66,0.00,,,0.00,Wunderground v.1.15,2013-09-23 19:18:00,
2013-09-23 15:23:00,56.4,44.8,30.13,NE,36,0.0,0.0,65,0.00,,,0.00,Wunderground v.1.15,2013-09-23 19:23:00,
2013-09-23 15:29:00,56.5,44.5,30.13,North,360,0.0,1.0,64,0.00,,,0.00,Wunderground v.1.15,2013-09-23 19:29:00,
2013-09-23 15:34:00,56.4,44.8,30.13,ESE,115,0.0,2.0,65,0.00,,,0.00,Wunderground v.1.15,2013-09-23 19:34:00,
2013-09-23 15:39:00,56.3,43.4,30.13,ESE,115,0.0,2.0,62,0.00,,,0.00,Wunderground v.1.15,2013-09-23 19:39:00,
2013-09-23 15:45:00,56.3,45.9,30.13,ESE,115,0.0,1.0,68,0.00,,,0.00,Wunderground v.1.15,2013-09-23 19:45:00,
2013-09-23 15:50:00,56.3,44.3,30.13,SE,138,0.0,0.0,64,0.00,,,0.00,Wunderground v.1.15,2013-09-23 19:50:00,
2013-09-23 15:55:00,56.5,45.7,30.13,NE,35,0.0,2.0,67,0.00,,,0.00,Wunderground v.1.15,2013-09-23 19:55:00,
2013-09-23 16:00:00,56.5,44.0,30.13,NE,36,0.0,0.0,63,0.00,,,0.00,Wunderground v.1.15,2013-09-23 20:00:00,
2013-09-23 16:06:00,56.5,46.1,30.13,NE,36,0.0,0.0,68,0.00,,,0.00,Wunderground v.1.15,2013-09-23 20:06:00,
2013-09-23 16:11:00,56.6,45.4,30.13,ESE,112,0.0,0.0,66,0.00,,,0.00,Wunderground v.1.15,2013-09-23 20:11:00,
2013-09-23 16:16:00,56.7,44.7,30.12,East,82,0.0,1.0,64,0.00,,,0.00,Wunderground v.1.15,2013-09-23 20:16:00,
2013-09-23 16:21:00,56.7,44.7,30.12,NNW,340,0.0,0.0,64,0.00,,,0.00,Wunderground v.1.15,2013-09-23 20:21:00,
2013-09-23 16:27:00,56.6,44.1,30.13,SSE,166,0.0,2.0,63,0.00,,,0.00,Wunderground v.1.15,2013-09-23 20:27:00,
2013-09-23 16:32:00,56.6,46.9,30.13,SSE,160,0.0,0.0,70,0.00,,,0.00,Wunderground v.1.15,2013-09-23 20:32:00,
2013-09-23 16:37:00,56.6,45.8,30.13,SE,136,0.0,0.0,67,0.00,,,0.00,Wunderground v.1.15,2013-09-23 20:37:00,
2013-09-23 16:43:00,56.3,45.1,30.13,SE,136,0.0,0.0,66,0.00,,,0.00,Wunderground v.1.15,2013-09-23 20:43:00,
2013-09-23 16:48:00,56.1,44.9,30.13,SE,142,0.0,1.0,66,0.00,,,0.00,Wunderground v.1.15,2013-09-23 20:48:00,
2013-09-23 16:53:00,55.9,45.1,30.13,SE,142,0.0,0.0,67,0.00,,,0.00,Wunderground v.1.15,2013-09-23 20:53:00,
2013-09-23 16:58:00,55.8,46.2,30.13,ENE,59,0.0,0.0,70,0.00,,,0.00,Wunderground v.1.15,2013-09-23 20:58:00,
2013-09-23 17:04:00,55.7,44.9,30.13,SE,144,0.0,0.0,67,0.00,,,0.00,Wunderground v.1.15,2013-09-23 21:04:00,
2013-09-23 17:09:00,55.7,45.7,30.13,South,187,0.0,0.0,69,0.00,,,0.00,Wunderground v.1.15,2013-09-23 21:09:00,
2013-09-23 17:14:00,55.5,47.0,30.13,SE,134,0.0,3.0,73,0.00,,,0.00,Wunderground v.1.15,2013-09-23 21:14:00,
2013-09-23 17:20:00,55.4,46.2,30.13,ESE,113,1.0,1.0,71,0.00,,,0.00,Wunderground v.1.15,2013-09-23 21:20:00,
2013-09-23 17:25:00,55.5,45.5,30.13,East,86,1.0,1.0,69,0.00,,,0.00,Wunderground v.1.15,2013-09-23 21:25:00,
2013-09-23 17:30:00,55.4,46.2,30.13,SW,236,0.0,0.0,71,0.00,,,0.00,Wunderground v.1.15,2013-09-23 21:30:00,
2013-09-23 17:35:00,55.4,46.2,30.13,NNE,22,0.0,1.0,71,0.00,,,0.00,Wunderground v.1.15,2013-09-23 21:35:00,
2013-09-23 17:40:00,55.3,45.3,30.13,ESE,108,0.0,2.0,69,0.00,,,0.00,Wunderground v.1.15,2013-09-23 21:40:00,
2013-09-23 17:46:00,55.3,46.1,30.13,ESE,108,0.0,2.0,71,0.00,,,0.00,Wunderground v.1.15,2013-09-23 21:46:00,
2013-09-23 17:52:00,55.1,45.5,30.13,ESE,108,0.0,0.0,70,0.00,,,0.00,Wunderground v.1.15,2013-09-23 21:52:00,
2013-09-23 17:57:00,54.9,47.1,30.13,ESE,107,0.0,0.0,75,0.00,,,0.00,Wunderground v.1.15,2013-09-23 21:57:00,
2013-09-23 18:02:00,54.7,48.3,30.13,ESE,107,0.0,0.0,79,0.00,,,0.00,Wunderground v.1.15,2013-09-23 22:02:00,
2013-09-23 18:08:00,54.2,47.8,30.13,ESE,107,0.0,0.0,79,0.00,,,0.00,Wunderground v.1.15,2013-09-23 22:08:00,
2013-09-23 18:13:00,53.8,47.4,30.13,ESE,107,0.0,0.0,79,0.00,,,0.00,Wunderground v.1.15,2013-09-23 22:13:00,
2013-09-23 18:19:00,53.6,48.6,30.13,ESE,107,0.0,0.0,83,0.00,,,0.00,Wunderground v.1.15,2013-09-23 22:19:00,
2013-09-23 18:24:00,53.5,48.8,30.13,ESE,107,0.0,0.0,84,0.00,,,0.00,Wunderground v.1.15,2013-09-23 22:24:00,
2013-09-23 18:29:00,53.4,48.4,30.13,ESE,107,0.0,0.0,83,0.00,,,0.00,Wunderground v.1.15,2013-09-23 22:29:00,
2013-09-23 18:35:00,53.3,48.6,30.12,ESE,107,0.0,0.0,84,0.00,,,0.00,Wunderground v.1.15,2013-09-23 22:35:00,
2013-09-23 18:40:00,53.3,47.9,30.12,ESE,107,0.0,0.0,82,0.00,,,0.00,Wunderground v.1.15,2013-09-23 22:40:00,
2013-09-23 18:45:00,53.3,48.3,30.12,ESE,107,0.0,0.0,83,0.00,,,0.00,Wunderground v.1.15,2013-09-23 22:45:00,
2013-09-23 18:50:00,53.2,47.5,30.13,ESE,107,0.0,0.0,81,0.00,,,0.00,Wunderground v.1.15,2013-09-23 22:50:00,
2013-09-23 18:56:00,53.0,47.0,30.13,ESE,107,0.0,0.0,80,0.00,,,0.00,Wunderground v.1.15,2013-09-23 22:56:00,
2013-09-23 19:02:00,52.6,47.9,30.13,ESE,107,0.0,0.0,84,0.00,,,0.00,Wunderground v.1.15,2013-09-23 23:02:00,
2013-09-23 19:07:00,52.2,47.5,30.13,ESE,107,0.0,0.0,84,0.00,,,0.00,Wunderground v.1.15,2013-09-23 23:07:00,
2013-09-23 19:13:00,51.7,46.7,30.12,ESE,107,0.0,0.0,83,0.00,,,0.00,Wunderground v.1.15,2013-09-23 23:13:00,
2013-09-23 19:18:00,51.3,46.3,30.12,ESE,107,0.0,0.0,83,0.00,,,0.00,Wunderground v.1.15,2013-09-23 23:18:00,
2013-09-23 19:24:00,50.8,45.5,30.13,ESE,107,0.0,0.0,82,0.00,,,0.00,Wunderground v.1.15,2013-09-23 23:24:00,
2013-09-23 19:29:00,50.5,45.8,30.13,ESE,107,0.0,0.0,84,0.00,,,0.00,Wunderground v.1.15,2013-09-23 23:29:00,
2013-09-23 19:34:00,50.2,45.9,30.12,ESE,107,0.0,0.0,85,0.00,,,0.00,Wunderground v.1.15,2013-09-23 23:34:00,
2013-09-23 19:39:00,49.9,45.6,30.13,ESE,107,0.0,0.0,85,0.00,,,0.00,Wunderground v.1.15,2013-09-23 23:39:00,
2013-09-23 19:45:00,49.5,45.5,30.13,ESE,107,0.0,0.0,86,0.00,,,0.00,Wunderground v.1.15,2013-09-23 23:45:00,
2013-09-23 19:50:00,49.2,45.2,30.13,ESE,107,0.0,0.0,86,0.00,,,0.00,Wunderground v.1.15,2013-09-23 23:50:00,
2013-09-23 19:56:00,48.8,45.1,30.13,ESE,107,0.0,0.0,87,0.00,,,0.00,Wunderground v.1.15,2013-09-23 23:56:00,
2013-09-23 20:02:00,48.5,45.1,30.13,ESE,107,0.0,0.0,88,0.00,,,0.00,Wunderground v.1.15,2013-09-24 00:02:00,
2013-09-23 20:07:00,48.2,44.8,30.13,ESE,107,0.0,0.0,88,0.00,,,0.00,Wunderground v.1.15,2013-09-24 00:07:00,
2013-09-23 20:13:00,47.9,44.8,30.13,ESE,107,0.0,0.0,89,0.00,,,0.00,Wunderground v.1.15,2013-09-24 00:13:00,
2013-09-23 20:19:00,47.6,44.8,30.13,ESE,107,0.0,0.0,90,0.00,,,0.00,Wunderground v.1.15,2013-09-24 00:19:00,
2013-09-23 20:24:00,47.4,44.6,30.14,ESE,107,0.0,0.0,90,0.00,,,0.00,Wunderground v.1.15,2013-09-24 00:24:00,
2013-09-23 20:29:00,47.2,44.4,30.14,ESE,107,0.0,0.0,90,0.00,,,0.00,Wunderground v.1.15,2013-09-24 00:29:00,
2013-09-23 20:35:00,47.0,44.5,30.14,ESE,107,0.0,0.0,91,0.00,,,0.00,Wunderground v.1.15,2013-09-24 00:35:00,
2013-09-23 20:40:00,46.9,44.4,30.14,ESE,107,0.0,0.0,91,0.00,,,0.00,Wunderground v.1.15,2013-09-24 00:40:00,
2013-09-23 20:45:00,46.7,44.2,30.14,ESE,107,0.0,0.0,91,0.00,,,0.00,Wunderground v.1.15,2013-09-24 00:45:00,
2013-09-23 20:50:00,46.5,44.0,30.14,ESE,107,0.0,0.0,91,0.00,,,0.00,Wunderground v.1.15,2013-09-24 00:50:00,
2013-09-23 20:56:00,46.3,44.1,30.14,ESE,107,0.0,0.0,92,0.00,,,0.00,Wunderground v.1.15,2013-09-24 00:56:00,
2013-09-23 21:02:00,46.2,44.0,30.14,ESE,107,0.0,0.0,92,0.00,,,0.00,Wunderground v.1.15,2013-09-24 01:02:00,
2013-09-23 21:07:00,46.1,43.9,30.14,ESE,107,0.0,0.0,92,0.00,,,0.00,Wunderground v.1.15,2013-09-24 01:07:00,
2013-09-23 21:12:00,45.9,43.7,30.14,ESE,107,0.0,0.0,92,0.00,,,0.00,Wunderground v.1.15,2013-09-24 01:12:00,
2013-09-23 21:18:00,45.8,43.6,30.13,ESE,107,0.0,0.0,92,0.00,,,0.00,Wunderground v.1.15,2013-09-24 01:18:00,
2013-09-23 21:23:00,45.6,43.7,30.13,ESE,107,0.0,0.0,93,0.00,,,0.00,Wunderground v.1.15,2013-09-24 01:23:00,
2013-09-23 21:28:00,45.5,43.6,30.13,ESE,107,0.0,0.0,93,0.00,,,0.00,Wunderground v.1.15,2013-09-24 01:28:00,
2013-09-23 21:33:00,45.4,43.5,30.13,ESE,107,0.0,0.0,93,0.00,,,0.00,Wunderground v.1.15,2013-09-24 01:33:00,
2013-09-23 21:38:00,45.2,43.3,30.13,ESE,107,0.0,0.0,93,0.00,,,0.00,Wunderground v.1.15,2013-09-24 01:38:00,
2013-09-23 21:44:00,45.1,43.2,30.13,ESE,107,0.0,0.0,93,0.00,,,0.00,Wunderground v.1.15,2013-09-24 01:44:00,
2013-09-23 21:49:00,45.1,43.2,30.13,ESE,107,0.0,0.0,93,0.00,,,0.00,Wunderground v.1.15,2013-09-24 01:49:00,
2013-09-23 21:54:00,45.0,43.1,30.13,ESE,107,0.0,0.0,93,0.00,,,0.00,Wunderground v.1.15,2013-09-24 01:54:00,
2013-09-23 22:00:00,44.8,42.9,30.14,ESE,107,0.0,0.0,93,0.00,,,0.00,Wunderground v.1.15,2013-09-24 02:00:00,
2013-09-23 22:06:00,44.7,43.1,30.14,ESE,107,0.0,0.0,94,0.00,,,0.00,Wunderground v.1.15,2013-09-24 02:06:00,
2013-09-23 22:11:00,44.5,42.9,30.14,ESE,107,0.0,0.0,94,0.00,,,0.00,Wunderground v.1.15,2013-09-24 02:11:00,
2013-09-23 22:16:00,44.4,42.8,30.14,ESE,107,0.0,0.0,94,0.00,,,0.00,Wunderground v.1.15,2013-09-24 02:16:00,
2013-09-23 22:22:00,44.3,42.7,30.14,ESE,107,0.0,0.0,94,0.00,,,0.00,Wunderground v.1.15,2013-09-24 02:22:00,
2013-09-23 22:27:00,44.2,42.6,30.14,ESE,107,0.0,0.0,94,0.00,,,0.00,Wunderground v.1.15,2013-09-24 02:27:00,
2013-09-23 22:32:00,44.1,42.5,30.14,ESE,107,0.0,0.0,94,0.00,,,0.00,Wunderground v.1.15,2013-09-24 02:32:00,
2013-09-23 22:37:00,44.1,42.5,30.14,ESE,107,0.0,0.0,94,0.00,,,0.00,Wunderground v.1.15,2013-09-24 02:37:00,
2013-09-23 22:42:00,43.9,42.3,30.14,ESE,107,0.0,0.0,94,0.00,,,0.00,Wunderground v.1.15,2013-09-24 02:42:00,
2013-09-23 22:47:00,43.8,42.2,30.14,ESE,107,0.0,0.0,94,0.00,,,0.00,Wunderground v.1.15,2013-09-24 02:47:00,
2013-09-23 22:53:00,43.6,42.0,30.14,ESE,107,0.0,0.0,94,0.00,,,0.00,Wunderground v.1.15,2013-09-24 02:53:00,
2013-09-23 22:59:00,43.5,41.9,30.14,ESE,107,0.0,0.0,94,0.00,,,0.00,Wunderground v.1.15,2013-09-24 02:59:00,
2013-09-23 23:04:00,43.5,41.9,30.14,ESE,107,0.0,0.0,94,0.00,,,0.00,Wunderground v.1.15,2013-09-24 03:04:00,
2013-09-23 23:10:00,43.5,42.2,30.14,ESE,107,0.0,0.0,95,0.00,,,0.00,Wunderground v.1.15,2013-09-24 03:10:00,
2013-09-23 23:15:00,43.4,42.1,30.14,ESE,107,0.0,0.0,95,0.00,,,0.00,Wunderground v.1.15,2013-09-24 03:15:00,
2013-09-23 23:21:00,43.3,41.7,30.14,ESE,107,0.0,0.0,94,0.00,,,0.00,Wunderground v.1.15,2013-09-24 03:21:00,
2013-09-23 23:26:00,43.2,41.6,30.14,ESE,107,0.0,0.0,94,0.00,,,0.00,Wunderground v.1.15,2013-09-24 03:26:00,
2013-09-23 23:32:00,43.0,41.4,30.14,ESE,107,0.0,0.0,94,0.00,,,0.00,Wunderground v.1.15,2013-09-24 03:32:00,
2013-09-23 23:37:00,42.9,41.6,30.14,ESE,107,0.0,0.0,95,0.00,,,0.00,Wunderground v.1.15,2013-09-24 03:37:00,
2013-09-23 23:42:00,42.9,41.6,30.14,ESE,107,0.0,0.0,95,0.00,,,0.00,Wunderground v.1.15,2013-09-24 03:42:00,
2013-09-23 23:47:00,42.8,41.5,30.14,ESE,107,0.0,0.0,95,0.00,,,0.00,Wunderground v.1.15,2013-09-24 03:47:00,
2013-09-23 23:53:00,42.7,41.4,30.14,ESE,107,0.0,0.0,95,0.00,,,0.00,Wunderground v.1.15,2013-09-24 03:53:00,
2013-09-23 23:58:00,42.6,41.3,30.14,ESE,107,0.0,0.0,95,0.00,,,0.00,Wunderground v.1.15,2013-09-24 03:58:00,